Location: Pic du Midi - T1M
(42.9366°N, 0.1426°E)
Time: 03:33:27
(UTC+00:00)

BlueWalker 3 - Visible Passes

Search period start: 01 February 2023 00:00
Search period end: 11 February 2023 00:00
Orbit: 499 x 517 km, 53.2° (Epoch: 31 January)

Date Brightness Start Highest point End Pass type
(mag) Time Alt. Az. Time Alt. Az. Time Alt. Az.
01 Feb 4.0 19:06:30 10° NW 19:09:12 18° N 19:09:19 18° N visible
02 Feb 3.9 18:47:36 10° NW 18:50:18 18° N 18:51:11 17° NNE visible
03 Feb 3.9 18:28:41 10° NW 18:31:22 18° N 18:33:03 14° NNE visible
03 Feb 5.0 20:07:38 10° NW 20:07:51 11° NW 20:07:51 11° NW visible
04 Feb 3.9 18:09:45 10° NW 18:12:26 18° N 18:14:55 11° NE visible
04 Feb 4.5 19:48:40 10° NW 19:49:43 16° NNW 19:49:43 16° NNW visible
05 Feb 3.9 17:50:49 10° NW 17:53:30 18° N 17:56:12 10° NE visible
05 Feb 3.9 19:29:41 10° NW 19:31:37 22° NNW 19:31:37 22° NNW visible
06 Feb 3.3 19:10:42 10° NW 19:13:32 28° N 19:13:32 28° N visible
07 Feb 3.0 18:51:42 10° NW 18:55:10 30° NNE 18:55:31 29° NNE visible
07 Feb 5.3 20:30:10 10° WNW 20:30:19 11° WNW 20:30:19 11° WNW visible
08 Feb 3.0 18:32:42 10° NW 18:36:11 31° NNE 18:37:34 24° ENE visible
08 Feb 4.6 20:11:11 10° WNW 20:12:22 19° WNW 20:12:22 19° WNW visible
09 Feb 2.9 18:13:41 10° NW 18:17:12 32° NNE 18:19:42 16° E visible
09 Feb 3.7 19:52:11 10° WNW 19:54:31 32° W 19:54:31 32° W visible
10 Feb 2.8 17:54:39 10° NW 17:58:11 33° NNE 18:01:43 10° E visible
10 Feb 2.7 19:33:11 10° WNW 19:36:47 48° SW 19:36:47 48° SW visible
